, AK

(GMT )
Eureka

Weather History for PAZK - October, 2013

Change the Weather History Date:

Friday, October 11, 2013

  Actual Average Record
Temperature  
Mean Temperature 31 °F -  
Max Temperature 39 °F 27 °F 39 °F (2013)
Min Temperature 23 °F 18 °F 10 °F (2007)
Degree Days  
Heating Degree Days 34    
Moisture  
Dew Point 25 °F    
Average Humidity 81    
Maximum Humidity 100    
Minimum Humidity 60    
Precipitation  
Precipitation 0.00 in - - ()
Sea Level Pressure  
Sea Level Pressure 29.77 in    
Wind  
Wind Speed 3 mph (NNE)    
Max Wind Speed 7 mph    
Max Gust Speed -    
Visibility 10 miles    
Events      
Averages and records for this station are not official NWS values.
T = Trace of Precipitation, MM = Missing Value Source: NWS Daily Summary

Daily Weather History Graph

Daily Weather History Graph

Search for Another Location

Airport or City:

Trip Planner

Search our weather history database for the weather conditions in past years. The results will help you decide how hot, cold, wet, or windy it might be!

Date:

Astronomy

Oct. 11, 2013 Rise Set
Actual Time 8:23 AM AKDT 6:45 PM AKDT
Civil Twilight 7:38 AM AKDT 7:30 PM AKDT
Nautical Twilight 6:47 AM AKDT 8:21 PM AKDT
Astronomical Twilight 5:54 AM AKDT 9:13 PM AKDT
Moon 4:09 PM AKDT (10/11) 11:50 PM AKDT (10/11)
Length of Visible Light 11h 51m
Length of Day
10h 22m
Waxing Crescent, 49% of the Moon is Illuminated
Oct 11
Waxing Crescent
Oct 11
First Quarter
Oct 18
Full
Oct 26
Last Quarter
Nov 3
New

Hourly Weather History & Observations

Time (AKDT) Temp. Windchill Dew Point Humidity Pressure Visibility Wind Dir Wind Speed Gust Speed Precip Events Conditions
12:16 AM 26.6 °F 22.6 °F 23.0 °F 86% 29.68 in 10.0 mi NE 3.5 mph - N/A   Overcast
12:36 AM 26.6 °F 21.2 °F 23.0 °F 86% 29.68 in 10.0 mi NE 4.6 mph - N/A   Overcast
12:56 AM 26.6 °F - 23.0 °F 86% 29.68 in 10.0 mi Calm Calm - N/A   Overcast
1:16 AM 26.6 °F 22.6 °F 24.8 °F 93% 29.69 in 10.0 mi NE 3.5 mph - N/A   Overcast
1:36 AM 26.6 °F 22.6 °F 23.0 °F 86% 29.69 in 10.0 mi NE 3.5 mph - N/A   Overcast
1:56 AM 26.6 °F - 24.8 °F 93% 29.69 in 10.0 mi Calm Calm - N/A   Overcast
2:16 AM 28.4 °F 24.6 °F 24.8 °F 86% 29.69 in 10.0 mi NNE 3.5 mph - N/A   Overcast
2:36 AM 28.4 °F 23.3 °F 24.8 °F 86% 29.69 in 10.0 mi NE 4.6 mph - N/A   Overcast
2:56 AM 28.4 °F 23.3 °F 24.8 °F 86% 29.69 in 10.0 mi NE 4.6 mph - N/A   Overcast
3:16 AM 26.6 °F - 24.8 °F 93% 29.70 in 10.0 mi Calm Calm - N/A   Overcast
3:36 AM 28.4 °F - 24.8 °F 86% 29.70 in 10.0 mi Calm Calm - N/A   Overcast
3:56 AM 28.4 °F - 24.8 °F 86% 29.70 in 10.0 mi Calm Calm - N/A   Mostly Cloudy
4:16 AM 26.6 °F - 24.8 °F 93% 29.70 in 10.0 mi Calm Calm - N/A   Scattered Clouds
4:36 AM 26.6 °F 22.6 °F 24.8 °F 93% 29.70 in 10.0 mi NE 3.5 mph - N/A   Partly Cloudy
4:56 AM 26.6 °F - 24.8 °F 93% 29.71 in 10.0 mi Calm Calm - N/A   Clear
5:16 AM 26.6 °F 22.6 °F 24.8 °F 93% 29.71 in 10.0 mi ENE 3.5 mph - N/A   Clear
5:36 AM 26.6 °F - 23.0 °F 86% 29.71 in 10.0 mi Calm Calm - N/A   Partly Cloudy
5:56 AM 26.6 °F 22.6 °F 24.8 °F 93% 29.72 in 10.0 mi ENE 3.5 mph - N/A   Clear
6:16 AM 26.6 °F 21.2 °F 24.8 °F 93% 29.72 in 10.0 mi NE 4.6 mph - N/A   Clear
6:36 AM 24.8 °F 17.9 °F 21.2 °F 86% 29.72 in 10.0 mi NE 5.8 mph - N/A   Clear
6:56 AM 24.8 °F 17.9 °F 21.2 °F 86% 29.72 in 10.0 mi NE 5.8 mph - N/A   Clear
7:16 AM 24.8 °F 17.9 °F 24.8 °F 100% 29.72 in 10.0 mi NNE 5.8 mph - N/A   Scattered Clouds
7:36 AM 24.8 °F 16.9 °F 23.0 °F 93% 29.73 in 10.0 mi NNE 6.9 mph - N/A   Scattered Clouds
7:56 AM 24.8 °F 19.1 °F 24.8 °F 100% 29.73 in 7.0 mi NNE 4.6 mph - N/A   Overcast
8:16 AM 24.8 °F 19.1 °F 23.0 °F 93% 29.74 in 5.0 mi NNE 4.6 mph - N/A   Scattered Clouds
8:36 AM 23.0 °F 15.8 °F 21.2 °F 93% 29.74 in 1.0 mi NNE 5.8 mph - N/A   Clear
8:56 AM 23.0 °F - 21.2 °F 93% 29.74 in 0.2 mi Calm Calm - N/A   Overcast
9:16 AM 24.8 °F 20.5 °F 24.8 °F 100% 29.75 in 10.0 mi NW 3.5 mph - N/A   Partly Cloudy
9:36 AM 26.6 °F 22.6 °F 24.8 °F 93% 29.75 in 10.0 mi NNE 3.5 mph - N/A   Clear
9:56 AM 24.8 °F 20.5 °F 24.8 °F 100% 29.76 in 10.0 mi NNE 3.5 mph - N/A   Clear
10:16 AM 26.6 °F - 24.8 °F 93% 29.76 in 10.0 mi Calm Calm - N/A   Clear
10:36 AM 26.6 °F - 24.8 °F 93% 29.76 in 10.0 mi Calm Calm - N/A   Clear
10:56 AM 26.6 °F - 24.8 °F 93% 29.78 in 10.0 mi Calm Calm - N/A   Clear
11:16 AM 26.6 °F - 24.8 °F 93% 29.78 in 10.0 mi Calm Calm - N/A   Clear
11:36 AM 26.6 °F - 24.8 °F 93% 29.78 in 10.0 mi Calm Calm - N/A   Clear
11:56 AM 26.6 °F 22.6 °F 24.8 °F 93% 29.79 in 10.0 mi NE 3.5 mph - N/A   Clear
12:16 PM 28.4 °F 24.6 °F 26.6 °F 93% 29.80 in 10.0 mi North 3.5 mph - N/A   Clear
12:36 PM 30.2 °F - 26.6 °F 86% 29.80 in 10.0 mi Calm Calm - N/A   Clear
12:56 PM 32.0 °F 27.5 °F 26.6 °F 80% 29.80 in 10.0 mi SE 4.6 mph - N/A   Clear
1:16 PM 33.8 °F - 26.6 °F 75% 29.81 in 10.0 mi Calm Calm - N/A   Clear
1:36 PM 33.8 °F - 26.6 °F 75% 29.81 in 10.0 mi Calm Calm - N/A   Clear
1:56 PM 37.4 °F - 26.6 °F 65% 29.81 in 10.0 mi Calm Calm - N/A   Clear
2:16 PM 37.4 °F - 26.6 °F 65% 29.81 in 10.0 mi Calm Calm - N/A   Clear
2:36 PM 39.2 °F - 26.6 °F 61% 29.81 in 10.0 mi Calm Calm - N/A   Clear
2:56 PM 37.4 °F 34.9 °F 24.8 °F 60% 29.81 in 10.0 mi SE 3.5 mph - N/A   Clear
3:16 PM 37.4 °F 34.9 °F 26.6 °F 65% 29.81 in 10.0 mi SE 3.5 mph - N/A   Clear
3:36 PM 37.4 °F 34.9 °F 26.6 °F 65% 29.81 in 10.0 mi SE 3.5 mph - N/A   Clear
3:56 PM 37.4 °F 34.9 °F 26.6 °F 65% 29.81 in 10.0 mi South 3.5 mph - N/A   Clear
4:16 PM 37.4 °F - 26.6 °F 65% 29.81 in 10.0 mi Calm Calm - N/A   Clear
4:36 PM 37.4 °F - 24.8 °F 60% 29.81 in 10.0 mi Calm Calm - N/A   Clear
4:56 PM 37.4 °F - 24.8 °F 60% 29.81 in 10.0 mi Calm Calm - N/A   Clear
5:16 PM 37.4 °F - 26.6 °F 65% 29.81 in 10.0 mi Calm Calm - N/A   Clear
5:36 PM 37.4 °F - 24.8 °F 60% 29.81 in 10.0 mi Calm Calm - N/A   Clear
5:56 PM 35.6 °F - 24.8 °F 65% 29.81 in 10.0 mi Calm Calm - N/A   Clear
6:16 PM 35.6 °F - 24.8 °F 65% 29.82 in 10.0 mi Calm Calm - N/A   Clear
6:36 PM 33.8 °F - 24.8 °F 70% 29.82 in 10.0 mi Calm Calm - N/A   Clear
6:56 PM 33.8 °F - 24.8 °F 70% 29.81 in 10.0 mi Calm Calm - N/A   Clear
7:16 PM 33.8 °F 30.8 °F 24.8 °F 70% 29.81 in 10.0 mi WSW 3.5 mph - N/A   Clear
7:36 PM 33.8 °F 29.6 °F 24.8 °F 70% 29.82 in 10.0 mi WSW 4.6 mph - N/A   Clear
7:56 PM 33.8 °F 29.6 °F 24.8 °F 70% 29.82 in 10.0 mi West 4.6 mph - N/A   Clear
8:16 PM 32.0 °F 26.4 °F 23.0 °F 69% 29.82 in 10.0 mi West 5.8 mph - N/A   Clear
8:36 PM 32.0 °F 28.7 °F 24.8 °F 75% 29.83 in 10.0 mi West 3.5 mph - N/A   Clear
8:56 PM 32.0 °F 28.7 °F 24.8 °F 75% 29.82 in 10.0 mi West 3.5 mph - N/A   Clear
9:16 PM 33.8 °F - 23.0 °F 65% 29.82 in 10.0 mi Calm Calm - N/A   Clear
9:36 PM 32.0 °F - 24.8 °F 75% 29.83 in 10.0 mi Calm Calm - N/A   Clear
9:56 PM 30.2 °F 24.3 °F 24.8 °F 80% 29.83 in 10.0 mi NNW 5.8 mph - N/A   Clear
10:16 PM 32.0 °F 28.7 °F 24.8 °F 75% 29.83 in 10.0 mi North 3.5 mph - N/A   Clear
10:36 PM 32.0 °F 28.7 °F 24.8 °F 75% 29.84 in 10.0 mi NNE 3.5 mph - N/A   Partly Cloudy
10:56 PM 30.2 °F 25.4 °F 26.6 °F 86% 29.83 in 10.0 mi North 4.6 mph - N/A   Mostly Cloudy
11:16 PM 32.0 °F 28.7 °F 24.8 °F 75% 29.84 in 10.0 mi NNE 3.5 mph - N/A   Overcast
11:36 PM 33.8 °F 30.8 °F 24.8 °F 70% 29.83 in 10.0 mi NE 3.5 mph - N/A   Mostly Cloudy
11:56 PM 33.8 °F 29.6 °F 24.8 °F 70% 29.83 in 10.0 mi NE 4.6 mph - N/A   Mostly Cloudy